Regional Weather Roundup
Issued by NWS

Home | Current Version | Previous Version | Text Only | Print | Product List | Glossary Off
Versions: 1 2 3 4 5 6 7 8 9 10 11 12 13 14 15 16 17 18 19 20 21 22 23 24 25 26 27 28 29 30 31 32 33 34 35 36 37 38 39 40 41 42 43 44 45 46 47 48 49 50

000
ASUS43 KLMK 281010
RWRKY
KENTUCKY REGIONAL WEATHER ROUNDUP
NATIONAL WEATHER SERVICE LOUISVILLE KY
500 AM EST WED JAN 28 2015

NOTE "FAIR" INDICATES FEW OR NO CLOUDS BELOW 12,000 FEET
WITH NO SIGNIFICANT WEATHER AND/OR OBSTRUCTIONS TO VISIBILITY.

KYZ001>023-026-027-061>063-070>075-281100-
WESTERN AND SOUTH CENTRAL KENTUCKY

CITY           SKY/WX    TMP DP  RH WIND       PRES   REMARKS
PADUCAH        CLEAR     24  22  91 CALM      30.27R FOG
HENDERSON      CLOUDY    32  25  74 E5        30.30R WCI  27
OWENSBORO      CLOUDY    32  26  78 CALM      30.30R
HOPKINSVILLE   CLOUDY    30  28  91 NE6       30.27R WCI  24
BOWLING GREEN  CLOUDY    30  20  66 NE7       30.30R WCI  23
GLASGOW        MOCLDY    23  17  76 CALM      30.28R
$$

KYZ024-025-028>034-038-045-046-053-281100-
NORTH CENTRAL KENTUCKY

CITY           SKY/WX    TMP DP  RH WIND       PRES   REMARKS
LOUISVILLE/SDF CLEAR     23  13  65 CALM      30.33R
LOUISVILLE/LOU PTCLDY    20  13  74 CALM      30.33R
FORT KNOX      CLEAR     19  14  79 NE3       30.28R
$$

KYZ035>037-039>044-047>052-055>060-089>105-281100-
NORTHEAST KENTUCKY

CITY           SKY/WX    TMP DP  RH WIND       PRES   REMARKS
LEXINGTON      CLEAR     14  11  87 CALM      30.30R
COVINGTON      CLEAR     14  10  84 CALM      30.30R FOG
FRANKFORT      CLEAR     14  11  87 CALM      30.30R
$$

KYZ054-064>069-076>088-106>120-281100-
SOUTHEAST KENTUCKY

CITY           SKY/WX    TMP DP  RH WIND       PRES   REMARKS
JACKSON        CLEAR     16  10  77 CALM      30.25R
LONDON         CLEAR     20  11  68 CALM      30.24S
SOMERSET       FAIR      19  14  79 CALM      30.29R
MIDDLESBORO    CLEAR     19  17  91 CALM      30.24S
MONTICELLO     SUNNY     16  14  91 CALM      30.29S
$$



USA.gov is the U.S. government's official web portal to all federal, state and local government web resources and services.